| time (UTC) | temp C | wind direction | speed KPH | gust KPH | rain 1hr cm | rain 24hr cm | rain mn cm | humidity % | barometer mb |
| 20260904140251 | 32 | 279 | 8.0 | 25.7 | 0.00 | 0.00 | 0.00 | 31 | 1017.3 |
| 20260904134754 | 32 | 329 | 6.4 | 20.9 | 0.00 | 0.00 | 0.00 | 32 | 1017.2 |
| 20260904133605 | 32 | 252 | 6.4 | 19.3 | 0.00 | 0.00 | 0.00 | 33 | 1017.3 |
| 20260904133055 | 32 | 225 | 8.0 | 17.7 | 0.00 | 0.00 | 0.00 | 32 | 1017.6 |
| 20260904124752 | 31 | 172 | 8.0 | 20.9 | 0.00 | 0.00 | 0.00 | 35 | 1017.9 |
| 20260904123248 | 31 | 232 | 8.0 | 19.3 | 0.00 | 0.00 | 0.00 | 37 | 1018.1 |
| 20260904121750 | 31 | 176 | 6.4 | 14.5 | 0.00 | 0.00 | 0.00 | 37 | 1018.4 |
| 20260904120248 | 31 | 252 | 6.4 | 19.3 | 0.00 | 0.00 | 0.00 | 38 | 1018.6 |
| 20260904114750 | 31 | 131 | 4.8 | 17.7 | 0.00 | 0.00 | 0.00 | 37 | 1018.9 |
| 20260904110247 | 30 | 229 | 4.8 | 20.9 | 0.00 | 0.00 | 0.00 | 41 | 1019.7 |
| 20260904103246 | 28 | 194 | 6.4 | 19.3 | 0.00 | 0.00 | 0.00 | 42 | 1020.2 |
| 20260904101744 | 28 | 278 | 6.4 | 22.5 | 0.00 | 0.00 | 0.00 | 43 | 1020.6 |
| 20260904094751 | 27 | 294 | 6.4 | 16.1 | 0.00 | 0.00 | 0.00 | 45 | 1021.1 |
| 20260904093240 | 27 | 213 | 4.8 | 14.5 | 0.00 | 0.00 | 0.00 | 45 | 1021.2 |
| 20260904084741 | 26 | 221 | 4.8 | 14.5 | 0.00 | 0.00 | 0.00 | 49 | 1021.7 |
| 20260904083239 | 26 | 256 | 4.8 | 14.5 | 0.00 | 0.00 | 0.00 | 50 | 1021.8 |
| 20260904080239 | 25 | 244 | 1.6 | 9.7 | 0.00 | 0.00 | 0.00 | 53 | 1021.8 |
| 20260904073236 | 23 | 262 | 3.2 | 11.3 | 0.00 | 0.00 | 0.00 | 57 | 1022.3 |
| 20260904071736 | 22 | 265 | 3.2 | 9.7 | 0.00 | 0.00 | 0.00 | 60 | 1022.2 |
| 20260904070236 | 21 | 225 | 3.2 | 11.3 | 0.00 | 0.00 | 0.00 | 62 | 1022.2 |
| 20260904064733 | 20 | 262 | 1.6 | 6.4 | 0.00 | 0.00 | 0.00 | 67 | 1022.3 |
| 20260904063235 | 19 | 226 | 3.2 | 11.3 | 0.00 | 0.00 | 0.00 | 68 | 1022.3 |
| 20260904061733 | 19 | 265 | 3.2 | 8.0 | 0.00 | 0.00 | 0.00 | 69 | 1022.2 |
| 20260904060231 | 18 | 295 | 1.6 | 9.7 | 0.00 | 0.00 | 0.00 | 69 | 1022.4 |
| 20260904054731 | 18 | 281 | 1.6 | 3.2 | 0.00 | 0.00 | 0.00 | 72 | 1022.5 |
| 20260904053231 | 18 | 269 | 0.0 | 1.6 | 0.00 | 0.00 | 0.00 | 72 | 1022.4 |
| 20260904051733 | 17 | 269 | 0.0 | 1.6 | 0.00 | 0.00 | 0.00 | 73 | 1022.4 |
| 20260904050226 | 17 | 269 | 0.0 | 0.0 | 0.00 | 0.00 | 0.00 | 74 | 1022.4 |
| 20260904043226 | 17 | 269 | 0.0 | 1.6 | 0.00 | 0.00 | 0.00 | 72 | 1022.4 |
| 20260904041723 | 18 | 269 | 0.0 | 1.6 | 0.00 | 0.00 | 0.00 | 71 | 1022.5 |
| 20260904040222 | 18 | 269 | 0.0 | 1.6 | 0.00 | 0.00 | 0.00 | 71 | 1022.5 |
| 20260904034722 | 17 | 269 | 0.0 | 0.0 | 0.00 | 0.00 | 0.00 | 71 | 1022.7 |
| 20260904031728 | 18 | 269 | 0.0 | 1.6 | 0.00 | 0.00 | 0.00 | 67 | 1022.6 |
| 20260904030228 | 19 | 269 | 1.6 | 8.0 | 0.00 | 0.00 | 0.00 | 66 | 1022.7 |
| 20260904024724 | 19 | 218 | 1.6 | 6.4 | 0.00 | 0.00 | 0.00 | 65 | 1022.7 |
| 20260904023216 | 19 | 236 | 1.6 | 4.8 | 0.00 | 0.00 | 0.00 | 66 | 1022.8 |
| 20260904021721 | 19 | 185 | 1.6 | 6.4 | 0.00 | 0.00 | 0.00 | 66 | 1022.9 |
| 20260904020220 | 19 | 214 | 0.0 | 4.8 | 0.00 | 0.00 | 0.00 | 67 | 1022.8 |
| 20260904014717 | 19 | 248 | 1.6 | 4.8 | 0.00 | 0.00 | 0.00 | 66 | 1023.0 |
| 20260904013211 | 20 | 238 | 1.6 | 4.8 | 0.00 | 0.00 | 0.00 | 66 | 1023.1 |
| 20260904011720 | 20 | 219 | 1.6 | 6.4 | 0.00 | 0.00 | 0.00 | 67 | 1023.2 |
| 20260904010212 | 20 | 198 | 1.6 | 6.4 | 0.00 | 0.00 | 0.00 | 67 | 1023.1 |
| 20260904004708 | 20 | 246 | 1.6 | 6.4 | 0.00 | 0.00 | 0.00 | 67 | 1023.1 |
| 20260904003208 | 20 | 288 | 1.6 | 6.4 | 0.00 | 0.00 | 0.00 | 67 | 1023.2 |
| 20260903234710 | 19 | 237 | 1.6 | 6.4 | 0.00 | 0.00 | 0.00 | 67 | 1023.5 |
| 20260903233207 | 19 | 213 | 1.6 | 6.4 | 0.00 | 0.00 | 0.00 | 67 | 1023.6 |
| 20260903231709 | 19 | 211 | 1.6 | 4.8 | 0.00 | 0.00 | 0.00 | 67 | 1023.6 |
| 20260903230208 | 19 | 236 | 1.6 | 6.4 | 0.00 | 0.00 | 0.00 | 68 | 1023.7 |
| 20260903224708 | 19 | 243 | 1.6 | 4.8 | 0.00 | 0.00 | 0.00 | 66 | 1023.9 |
| 20260903223209 | 20 | 217 | 1.6 | 4.8 | 0.00 | 0.00 | 0.00 | 66 | 1023.9 |
| 20260903221706 | 19 | 232 | 1.6 | 6.4 | 0.00 | 0.00 | 0.00 | 67 | 1023.9 |
| 20260903220206 | 19 | 248 | 1.6 | 4.8 | 0.00 | 0.00 | 0.00 | 67 | 1024.0 |
| 20260903214706 | 18 | 230 | 0.0 | 3.2 | 0.00 | 0.00 | 0.00 | 68 | 1023.9 |
| 20260903213205 | 18 | 230 | 0.0 | 1.6 | 0.00 | 0.00 | 0.00 | 68 | 1023.6 |
| 20260903211706 | 19 | 230 | 0.0 | 4.8 | 0.00 | 0.00 | 0.00 | 67 | 1023.5 |
| 20260903210203 | 19 | 217 | 1.6 | 6.4 | 0.00 | 0.00 | 0.00 | 66 | 1023.4 |
| 20260903201704 | 19 | 264 | 0.0 | 1.6 | 0.00 | 0.00 | 0.00 | 66 | 1023.7 |
| 20260903200202 | 19 | 264 | 0.0 | 1.6 | 0.00 | 0.00 | 0.00 | 67 | 1023.7 |
| 20260903194703 | 20 | 264 | 0.0 | 3.2 | 0.00 | 0.00 | 0.00 | 64 | 1023.4 |
| 20260903191707 | 21 | 296 | 1.6 | 6.4 | 0.00 | 0.00 | 0.00 | 60 | 1023.0 |
| 20260903190204 | 21 | 257 | 1.6 | 6.4 | 0.00 | 0.00 | 0.00 | 60 | 1022.9 |
| 20260903184702 | 21 | 171 | 1.6 | 6.4 | 0.00 | 0.00 | 0.00 | 60 | 1022.8 |
| 20260903183204 | 21 | 235 | 1.6 | 6.4 | 0.00 | 0.00 | 0.00 | 59 | 1022.8 |
| 20260903181703 | 21 | 257 | 1.6 | 6.4 | 0.00 | 0.00 | 0.00 | 58 | 1022.6 |
| 20260903180203 | 22 | 269 | 1.6 | 9.7 | 0.00 | 0.00 | 0.00 | 57 | 1022.7 |
| 20260903173204 | 23 | 256 | 3.2 | 9.7 | 0.00 | 0.00 | 0.00 | 55 | 1022.5 |
| 20260903171704 | 23 | 194 | 3.2 | 11.3 | 0.00 | 0.00 | 0.00 | 54 | 1022.5 |
| 20260903170201 | 23 | 265 | 1.6 | 12.9 | 0.00 | 0.00 | 0.00 | 54 | 1022.6 |
| 20260903164704 | 23 | 285 | 3.2 | 12.9 | 0.00 | 0.00 | 0.00 | 53 | 1022.5 |
| 20260903163201 | 24 | 289 | 4.8 | 14.5 | 0.00 | 0.00 | 0.00 | 53 | 1022.3 |
| 20260903161703 | 24 | 246 | 3.2 | 11.3 | 0.00 | 0.00 | 0.00 | 53 | 1022.4 |
| 20260903160203 | 25 | 232 | 4.8 | 12.9 | 0.00 | 0.00 | 0.00 | 52 | 1022.5 |
| 20260903154701 | 25 | 277 | 4.8 | 12.9 | 0.00 | 0.00 | 0.00 | 51 | 1022.4 |
| 20260903153209 | 25 | 273 | 4.8 | 12.9 | 0.00 | 0.00 | 0.00 | 51 | 1022.6 |
| 20260903151705 | 25 | 246 | 4.8 | 17.7 | 0.00 | 0.00 | 0.00 | 50 | 1022.6 |
| 20260903150204 | 26 | 263 | 4.8 | 16.1 | 0.00 | 0.00 | 0.00 | 48 | 1022.5 |
| 20260903144705 | 26 | 167 | 6.4 | 19.3 | 0.00 | 0.00 | 0.00 | 49 | 1022.5 |
| 20260903143202 | 25 | 246 | 4.8 | 16.1 | 0.00 | 0.00 | 0.00 | 49 | 1022.7 |
| 20260903141704 | 26 | 248 | 6.4 | 22.5 | 0.00 | 0.00 | 0.00 | 48 | 1022.8 |